EWG3C LSZH-LOWI

Flight info

Callsign EWG3C
Flight time 0h 22m
Altitude 17000
Route DEGES Z2 OSDOV M738 MADEB MADEB1B
Aircraft A320/M-SDE3FGHIRWY/LB1

Departure

Time 2026-05-07 15:56
Airport Zürich Airport (LSZH)

Arrival

Time 2026-05-07 16:18
Airport Innsbruck Airport (LOWI)
Time Latitude Longitude Altitude Speed Heading
2026-05-07 15:40 47.45432 8.55691 1407 ft 0 kts 186°
2026-05-07 15:43 47.45433 8.55691 1407 ft 0 kts 186°
2026-05-07 15:47 47.45443 8.55693 1407 ft 2 kts 186°
2026-05-07 15:47 47.45460 8.55695 1406 ft 2 kts 186°
2026-05-07 15:47 47.45477 8.55698 1404 ft 2 kts 186°
2026-05-07 15:48 47.45490 8.55701 1403 ft 2 kts 177°
2026-05-07 15:48 47.45506 8.55693 1404 ft 2 kts 132°
2026-05-07 15:48 47.45512 8.55676 1401 ft 0 kts 94°
2026-05-07 15:50 47.45512 8.55686 1401 ft 0 kts 94°
2026-05-07 15:50 47.45508 8.55752 1400 ft 15 kts 95°
2026-05-07 15:50 47.45496 8.55921 1397 ft 17 kts 96°
2026-05-07 15:50 47.45487 8.56055 1404 ft 12 kts 95°
2026-05-07 15:51 47.45480 8.56162 1397 ft 9 kts 93°
2026-05-07 15:51 47.45492 8.56242 1405 ft 7 kts 58°
2026-05-07 15:51 47.45518 8.56290 1404 ft 5 kts 51°
2026-05-07 15:51 47.45547 8.56341 1397 ft 7 kts 50°
2026-05-07 15:52 47.45582 8.56406 1400 ft 14 kts 56°
2026-05-07 15:52 47.45587 8.56571 1402 ft 17 kts 95°
2026-05-07 15:52 47.45577 8.56721 1404 ft 12 kts 96°
2026-05-07 15:52 47.45571 8.56813 1397 ft 8 kts 96°
2026-05-07 15:53 47.45566 8.56884 1397 ft 6 kts 96°
2026-05-07 15:53 47.45562 8.56936 1397 ft 4 kts 95°
2026-05-07 15:53 47.45564 8.56970 1402 ft 2 kts 79°
2026-05-07 15:53 47.45565 8.56978 1401 ft 0 kts 73°
2026-05-07 15:54 47.45593 8.57014 1402 ft 13 kts 24°
2026-05-07 15:54 47.45663 8.56984 1401 ft 7 kts 288°
2026-05-07 15:54 47.45665 8.56962 1403 ft 0 kts 276°
2026-05-07 15:55 47.45668 8.56928 1399 ft 22 kts 276°
2026-05-07 15:56 47.45717 8.56307 1403 ft 95 kts 277°
2026-05-07 15:56 47.45802 8.55057 1395 ft 147 kts 276°
2026-05-07 15:56 47.45909 8.53385 1634 ft 168 kts 278°
2026-05-07 15:56 47.46036 8.51691 2408 ft 164 kts 278°
2026-05-07 15:57 47.46179 8.50017 3007 ft 169 kts 278°
2026-05-07 15:57 47.46274 8.48186 3349 ft 187 kts 264°
2026-05-07 15:57 47.45627 8.46459 3856 ft 208 kts 224°
2026-05-07 15:57 47.44439 8.45066 4461 ft 225 kts 222°
2026-05-07 15:58 47.43553 8.43148 5115 ft 230 kts 253°
2026-05-07 15:58 47.43215 8.40869 6003 ft 224 kts 259°
2026-05-07 15:58 47.42838 8.38630 6671 ft 229 kts 249°
2026-05-07 15:58 47.41883 8.36834 7361 ft 230 kts 212°
2026-05-07 15:59 47.40336 8.36280 7990 ft 235 kts 176°
2026-05-07 15:59 47.38822 8.37179 8593 ft 242 kts 140°
2026-05-07 15:59 47.37926 8.39282 9197 ft 249 kts 102°
2026-05-07 15:59 47.38065 8.41823 9763 ft 255 kts 64°
2026-05-07 16:00 47.39172 8.43848 10336 ft 257 kts 38°
2026-05-07 16:00 47.40603 8.45439 10928 ft 259 kts 35°
2026-05-07 16:00 47.41962 8.47251 11361 ft 273 kts 47°
2026-05-07 16:00 47.43241 8.49502 11600 ft 297 kts 51°
2026-05-07 16:01 47.44544 8.52018 11833 ft 320 kts 55°
2026-05-07 16:01 47.45551 8.55066 12001 ft 342 kts 74°
2026-05-07 16:01 47.45883 8.58610 12351 ft 355 kts 90°
2026-05-07 16:01 47.46049 8.64981 13436 ft 364 kts 88°
2026-05-07 16:02 47.46443 8.75204 15039 ft 373 kts 88°
2026-05-07 16:02 47.45489 8.90568 17200 ft 389 kts 104°
2026-05-07 16:02 47.42595 9.10877 17069 ft 371 kts 103°
2026-05-07 16:02 47.42119 9.25920 17156 ft 378 kts 76°
2026-05-07 16:03 47.44413 9.40930 17084 ft 374 kts 77°
2026-05-07 16:03 47.44738 9.55853 17194 ft 372 kts 106°
2026-05-07 16:03 47.43039 9.65947 16849 ft 361 kts 104°
2026-05-07 16:03 47.40624 9.80791 16876 ft 364 kts 104°
2026-05-07 16:04 47.38161 9.95413 16852 ft 367 kts 104°
2026-05-07 16:04 47.35656 10.10146 16891 ft 367 kts 105°
2026-05-07 16:04 47.33115 10.24980 16882 ft 364 kts 105°
2026-05-07 16:04 47.31029 10.38540 14852 ft 385 kts 101°
2026-05-07 16:05 47.30548 10.42299 14649 ft 364 kts 101°
2026-05-07 16:05 47.30085 10.45916 14428 ft 355 kts 101°
2026-05-07 16:05 47.29619 10.49465 14131 ft 350 kts 102°
2026-05-07 16:05 47.29141 10.52984 13711 ft 350 kts 102°
2026-05-07 16:06 47.28699 10.56499 13316 ft 346 kts 96°
2026-05-07 16:06 47.28688 10.60032 12857 ft 344 kts 86°
2026-05-07 16:06 47.28835 10.63537 12457 ft 342 kts 86°
2026-05-07 16:06 47.28983 10.66970 12046 ft 339 kts 86°
2026-05-07 16:07 47.29136 10.70417 11630 ft 335 kts 86°
2026-05-07 16:07 47.29284 10.73809 11231 ft 330 kts 86°
2026-05-07 16:07 47.29434 10.77175 10830 ft 329 kts 86°
2026-05-07 16:07 47.29586 10.80526 10431 ft 327 kts 86°
2026-05-07 16:08 47.29739 10.83858 10089 ft 323 kts 86°
2026-05-07 16:08 47.29883 10.87109 9915 ft 314 kts 86°
2026-05-07 16:08 47.30019 10.90313 9545 ft 309 kts 86°
2026-05-07 16:08 47.30140 10.93432 9177 ft 302 kts 86°
2026-05-07 16:09 47.30258 10.96479 8821 ft 292 kts 86°
2026-05-07 16:09 47.30372 10.99392 8404 ft 285 kts 86°
2026-05-07 16:09 47.30478 11.02281 7889 ft 280 kts 86°
2026-05-07 16:09 47.30582 11.05125 7325 ft 276 kts 86°
2026-05-07 16:10 47.30640 11.07915 6834 ft 268 kts 96°
2026-05-07 16:10 47.30181 11.10512 6470 ft 257 kts 110°
2026-05-07 16:10 47.29553 11.12920 6114 ft 246 kts 111°
2026-05-07 16:10 47.28935 11.15173 5732 ft 228 kts 112°
2026-05-07 16:11 47.28351 11.17288 5231 ft 216 kts 111°
2026-05-07 16:11 47.27760 11.19247 4794 ft 199 kts 122°
2026-05-07 16:11 47.27007 11.20809 4447 ft 183 kts 121°
2026-05-07 16:11 47.26381 11.22347 4237 ft 165 kts 114°
2026-05-07 16:12 47.26009 11.23884 3948 ft 156 kts 105°
2026-05-07 16:12 47.25694 11.25412 3577 ft 156 kts 105°
2026-05-07 16:12 47.25411 11.26964 3157 ft 158 kts 99°
2026-05-07 16:12 47.25387 11.28579 2739 ft 159 kts 84°
2026-05-07 16:13 47.25554 11.30179 2493 ft 153 kts 79°
2026-05-07 16:13 47.25738 11.31688 2153 ft 149 kts 81°
2026-05-07 16:13 47.25893 11.33164 1946 ft 149 kts 81°
2026-05-07 16:13 47.26039 11.34580 1927 ft 145 kts 82°
2026-05-07 16:14 47.26204 11.36170 2351 ft 168 kts 81°
2026-05-07 16:14 47.26440 11.37954 2970 ft 186 kts 69°
2026-05-07 16:14 47.27092 11.39660 3570 ft 192 kts 59°
2026-05-07 16:14 47.27341 11.41564 3868 ft 193 kts 102°
2026-05-07 16:15 47.26627 11.43170 4051 ft 192 kts 146°
2026-05-07 16:15 47.25356 11.43569 4233 ft 198 kts 188°
2026-05-07 16:15 47.24183 11.42526 4182 ft 204 kts 237°
2026-05-07 16:15 47.23798 11.40529 3900 ft 204 kts 263°
2026-05-07 16:16 47.23616 11.38507 3882 ft 198 kts 264°
2026-05-07 16:16 47.23497 11.36510 3777 ft 192 kts 268°
2026-05-07 16:16 47.23476 11.34627 3556 ft 177 kts 274°
2026-05-07 16:16 47.23598 11.32895 3345 ft 164 kts 283°
2026-05-07 16:17 47.23818 11.31281 3113 ft 159 kts 283°
2026-05-07 16:17 47.24219 11.29803 2911 ft 156 kts 311°
2026-05-07 16:17 47.25149 11.29164 2532 ft 151 kts 13°
2026-05-07 16:17 47.25810 11.30205 2224 ft 163 kts 96°
2026-05-07 16:18 47.25752 11.31824 2112 ft 153 kts 84°
2026-05-07 16:18 47.25907 11.33298 1921 ft 138 kts 81°
2026-05-07 16:18 47.26031 11.34493 1905 ft 97 kts 81°
2026-05-07 16:18 47.26099 11.35127 1902 ft 21 kts 81°
2026-05-07 16:19 47.26078 11.35250 1907 ft 10 kts 152°
2026-05-07 16:19 47.26014 11.35268 1907 ft 8 kts 172°
2026-05-07 16:19 47.25963 11.35279 1907 ft 6 kts 171°
2026-05-07 16:19 47.25924 11.35288 1905 ft 5 kts 175°
2026-05-07 16:20 47.25899 11.35260 1898 ft 5 kts 250°
2026-05-07 16:20 47.25895 11.35214 1907 ft 4 kts 263°
2026-05-07 16:20 47.25879 11.35153 1900 ft 6 kts 224°
2026-05-07 16:20 47.25848 11.35157 1897 ft 4 kts 163°
2026-05-07 16:21 47.25829 11.35162 1904 ft 0 kts 171°